,,PressureMeas_1m,,PRMeasQMR101_1,,RHStat155_1m_1,,SRMeasQMS101R_1m,,TAStat155_1m_1,,GenWind_1,,GenWind_1,
2019-09-29, 00:00:06,VALID,919.308,VALID,0.0,VALID,98.054,VALID,0.009,VALID,20.834,VALID,28.0,VALID,0.0,
2019-09-29, 00:01:06,VALID,919.316,VALID,0.0,VALID,98.092,VALID,0.019,VALID,20.859,VALID,28.0,VALID,0.0,
2019-09-29, 00:02:06,VALID,919.306,VALID,0.0,VALID,98.139,VALID,0.018,VALID,20.889,VALID,28.0,VALID,0.0,
2019-09-29, 00:03:06,VALID,919.334,VALID,0.0,VALID,98.041,VALID,0.018,VALID,20.891,VALID,28.0,VALID,0.0,
2019-09-29, 00:04:06,VALID,919.332,VALID,0.0,VALID,98.006,VALID,0.022,VALID,20.925,VALID,28.0,VALID,0.0,
2019-09-29, 00:05:06,VALID,919.311,VALID,0.0,VALID,97.843,VALID,0.02,VALID,20.927,VALID,27.0,VALID,0.0,
2019-09-29, 00:06:06,VALID,919.289,VALID,0.0,VALID,97.703,VALID,0.007,VALID,20.941,VALID,26.0,VALID,0.0,
2019-09-29, 00:07:06,VALID,919.273,VALID,0.0,VALID,97.599,VALID,0.004,VALID,20.95,VALID,26.0,VALID,0.0,
2019-09-29, 00:08:06,VALID,919.26,VALID,0.0,VALID,97.574,VALID,0.018,VALID,20.978,VALID,26.0,VALID,0.0,
2019-09-29, 00:09:06,VALID,919.229,VALID,0.0,VALID,97.431,VALID,0.012,VALID,20.992,VALID,26.0,VALID,0.0,
2019-09-29, 00:10:06,VALID,919.217,VALID,0.0,VALID,97.361,VALID,0.018,VALID,21.005,VALID,26.0,VALID,0.0,
2019-09-29, 00:11:06,VALID,919.217,VALID,0.0,VALID,97.267,VALID,-0.007,VALID,20.995,VALID,25.0,VALID,0.0,
2019-09-29, 00:12:06,VALID,919.184,VALID,0.0,VALID,97.181,VALID,0.008,VALID,20.953,VALID,25.0,VALID,0.0,
2019-09-29, 00:13:06,VALID,919.192,VALID,0.0,VALID,97.389,VALID,0.001,VALID,20.907,VALID,22.0,VALID,0.0,
2019-09-29, 00:14:06,VALID,919.176,VALID,0.0,VALID,97.617,VALID,0.014,VALID,20.862,VALID,6.0,VALID,0.0,
2019-09-29, 00:15:06,VALID,919.159,VALID,0.0,VALID,97.846,VALID,-0.004,VALID,20.833,VALID,15.0,VALID,0.0,
2019-09-29, 00:16:06,VALID,919.139,VALID,0.0,VALID,98.056,VALID,-0.002,VALID,20.828,VALID,29.0,VALID,0.0,
2019-09-29, 00:17:06,VALID,919.124,VALID,0.0,VALID,98.158,VALID,0.023,VALID,20.8,VALID,29.0,VALID,0.0,
2019-09-29, 00:18:06,VALID,919.099,VALID,0.0,VALID,98.25,VALID,0.013,VALID,20.788,VALID,28.0,VALID,0.0,
2019-09-29, 00:19:06,VALID,919.099,VALID,0.0,VALID,98.416,VALID,0.011,VALID,20.811,VALID,27.0,VALID,0.0,
2019-09-29, 00:20:06,VALID,919.085,VALID,0.0,VALID,98.496,VALID,-0.02,VALID,20.804,VALID,19.0,VALID,0.0,
2019-09-29, 00:21:06,VALID,919.09,VALID,0.0,VALID,98.449,VALID,-0.078,VALID,20.766,VALID,12.0,VALID,0.0,
2019-09-29, 00:22:06,VALID,919.086,VALID,0.0,VALID,98.534,VALID,-0.09,VALID,20.774,VALID,9.0,VALID,0.0,
2019-09-29, 00:23:06,VALID,919.088,VALID,0.0,VALID,98.581,VALID,-0.085,VALID,20.762,VALID,356.0,VALID,0.0,
2019-09-29, 00:24:06,VALID,919.06,VALID,0.0,VALID,98.606,VALID,-0.087,VALID,20.737,VALID,353.0,VALID,0.0,
2019-09-29, 00:25:06,VALID,919.079,VALID,0.0,VALID,98.692,VALID,-0.087,VALID,20.766,VALID,353.0,VALID,0.0,
2019-09-29, 00:26:06,VALID,919.066,VALID,0.0,VALID,98.703,VALID,-0.084,VALID,20.74,VALID,353.0,VALID,0.0,
2019-09-29, 00:27:06,VALID,919.059,VALID,0.0,VALID,98.786,VALID,-0.09,VALID,20.766,VALID,353.0,VALID,0.0,
2019-09-29, 00:28:06,VALID,919.033,VALID,0.0,VALID,98.813,VALID,-0.097,VALID,20.789,VALID,353.0,VALID,0.0,
2019-09-29, 00:29:06,VALID,919.029,VALID,0.0,VALID,98.872,VALID,-0.083,VALID,20.803,VALID,353.0,VALID,0.0,
2019-09-29, 00:30:06,VALID,919.042,VALID,0.0,VALID,98.93,VALID,-0.082,VALID,20.83,VALID,359.0,VALID,0.0,
2019-09-29, 00:31:06,VALID,919.048,VALID,0.0,VALID,98.95,VALID,-0.097,VALID,20.813,VALID,23.0,VALID,0.0,
2019-09-29, 00:32:06,VALID,919.035,VALID,0.0,VALID,98.932,VALID,-0.074,VALID,20.789,VALID,24.0,VALID,0.0,
2019-09-29, 00:33:06,VALID,919.037,VALID,0.0,VALID,98.926,VALID,-0.081,VALID,20.783,VALID,355.0,VALID,0.0,
2019-09-29, 00:34:06,VALID,919.021,VALID,0.0,VALID,98.906,VALID,-0.087,VALID,20.746,VALID,2.0,VALID,0.0,
2019-09-29, 00:35:06,VALID,919.002,VALID,0.0,VALID,98.931,VALID,-0.082,VALID,20.739,VALID,2.0,VALID,0.0,
2019-09-29, 00:36:06,VALID,918.997,VALID,0.0,VALID,98.969,VALID,-0.113,VALID,20.751,VALID,2.0,VALID,0.0,
2019-09-29, 00:37:06,VALID,918.958,VALID,0.0,VALID,98.992,VALID,-0.099,VALID,20.77,VALID,1.0,VALID,0.0,
2019-09-29, 00:38:06,VALID,918.91,VALID,0.0,VALID,99.046,VALID,-0.093,VALID,20.813,VALID,1.0,VALID,0.0,
2019-09-29, 00:39:06,VALID,918.888,VALID,0.0,VALID,99.031,VALID,-0.093,VALID,20.813,VALID,1.0,VALID,0.0,
2019-09-29, 00:40:06,VALID,918.87,VALID,0.0,VALID,98.996,VALID,-0.094,VALID,20.805,VALID,2.0,VALID,0.0,
2019-09-29, 00:41:06,VALID,918.885,VALID,0.0,VALID,98.985,VALID,-0.122,VALID,20.808,VALID,12.0,VALID,0.0,
2019-09-29, 00:42:06,VALID,918.88,VALID,0.0,VALID,98.96,VALID,-0.109,VALID,20.79,VALID,32.0,VALID,0.0,
2019-09-29, 00:43:06,VALID,918.872,VALID,0.0,VALID,98.938,VALID,-0.102,VALID,20.772,VALID,33.0,VALID,0.0,
2019-09-29, 00:44:07,VALID,918.851,VALID,0.0,VALID,98.892,VALID,-0.097,VALID,20.757,VALID,33.0,VALID,0.0,
2019-09-29, 00:45:07,VALID,918.836,VALID,0.0,VALID,98.864,VALID,-0.098,VALID,20.719,VALID,33.0,VALID,0.0,
2019-09-29, 00:46:07,VALID,918.815,VALID,0.0,VALID,98.83,VALID,-0.104,VALID,20.712,VALID,33.0,VALID,0.0,
2019-09-29, 00:47:07,VALID,918.805,VALID,0.0,VALID,98.893,VALID,-0.107,VALID,20.746,VALID,33.0,VALID,0.0,
2019-09-29, 00:48:07,VALID,918.791,VALID,0.0,VALID,98.931,VALID,-0.092,VALID,20.78,VALID,33.0,VALID,0.0,
2019-09-29, 00:49:07,VALID,918.778,VALID,0.0,VALID,98.911,VALID,-0.101,VALID,20.75,VALID,33.0,VALID,0.0,
2019-09-29, 00:50:07,VALID,918.774,VALID,0.0,VALID,98.871,VALID,-0.07,VALID,20.727,VALID,33.0,VALID,0.0,
2019-09-29, 00:51:07,VALID,918.755,VALID,0.0,VALID,98.835,VALID,-0.02,VALID,20.705,VALID,33.0,VALID,0.0,
2019-09-29, 00:52:07,VALID,918.736,VALID,0.0,VALID,98.813,VALID,-0.001,VALID,20.697,VALID,33.0,VALID,0.0,
2019-09-29, 00:53:07,VALID,918.726,VALID,0.0,VALID,98.819,VALID,-0.001,VALID,20.694,VALID,33.0,VALID,0.0,
2019-09-29, 00:54:07,VALID,918.728,VALID,0.0,VALID,98.872,VALID,-0.005,VALID,20.708,VALID,33.0,VALID,0.0,
2019-09-29, 00:55:07,VALID,918.726,VALID,0.0,VALID,98.883,VALID,-0.002,VALID,20.721,VALID,33.0,VALID,0.0,
2019-09-29, 00:56:07,VALID,918.729,VALID,0.0,VALID,98.916,VALID,-0.009,VALID,20.733,VALID,33.0,VALID,0.0,
2019-09-29, 00:57:07,VALID,918.726,VALID,0.0,VALID,98.935,VALID,0.002,VALID,20.748,VALID,33.0,VALID,0.0,
2019-09-29, 00:58:07,VALID,918.717,VALID,0.0,VALID,98.955,VALID,0.003,VALID,20.759,VALID,33.0,VALID,0.0,
2019-09-29, 00:59:07,VALID,918.708,VALID,0.0,VALID,98.956,VALID,0.003,VALID,20.752,VALID,33.0,VALID,0.0,
2019-09-29, 01:00:07,VALID,918.709,VALID,0.0,VALID,98.937,VALID,0.007,VALID,20.746,VALID,33.0,VALID,0.0,
2019-09-29, 01:01:07,VALID,918.702,VALID,0.0,VALID,98.921,VALID,-0.004,VALID,20.735,VALID,33.0,VALID,0.0,
2019-09-29, 01:02:07,VALID,918.665,VALID,0.0,VALID,98.881,VALID,-0.009,VALID,20.727,VALID,33.0,VALID,0.0,
2019-09-29, 01:03:07,VALID,918.63,VALID,0.0,VALID,98.889,VALID,-0.014,VALID,20.73,VALID,33.0,VALID,0.0,
2019-09-29, 01:04:07,VALID,918.613,VALID,0.0,VALID,98.85,VALID,0.002,VALID,20.715,VALID,33.0,VALID,0.0,
2019-09-29, 01:05:07,VALID,918.574,VALID,0.0,VALID,98.859,VALID,-0.008,VALID,20.715,VALID,33.0,VALID,0.0,
2019-09-29, 01:06:07,VALID,918.56,VALID,0.0,VALID,98.92,VALID,-0.01,VALID,20.746,VALID,33.0,VALID,0.0,
2019-09-29, 01:07:07,VALID,918.55,VALID,0.0,VALID,98.936,VALID,-0.012,VALID,20.757,VALID,33.0,VALID,0.0,
2019-09-29, 01:08:07,VALID,918.52,VALID,0.0,VALID,98.935,VALID,-0.013,VALID,20.78,VALID,33.0,VALID,0.0,
2019-09-29, 01:09:07,VALID,918.507,VALID,0.0,VALID,98.905,VALID,-0.005,VALID,20.783,VALID,33.0,VALID,0.0,
2019-09-29, 01:10:07,VALID,918.506,VALID,0.0,VALID,98.864,VALID,-0.009,VALID,20.778,VALID,33.0,VALID,0.0,
2019-09-29, 01:11:07,VALID,918.468,VALID,0.0,VALID,98.819,VALID,-0.015,VALID,20.757,VALID,33.0,VALID,0.0,
2019-09-29, 01:12:07,VALID,918.484,VALID,0.0,VALID,98.781,VALID,-0.012,VALID,20.761,VALID,33.0,VALID,0.0,
2019-09-29, 01:13:07,VALID,918.471,VALID,0.0,VALID,98.832,VALID,-0.007,VALID,20.81,VALID,34.0,VALID,0.0,
2019-09-29, 01:14:07,VALID,918.478,VALID,0.0,VALID,98.778,VALID,0.0,VALID,20.793,VALID,35.0,VALID,0.0,
2019-09-29, 01:15:07,VALID,918.473,VALID,0.0,VALID,98.633,VALID,-0.011,VALID,20.72,VALID,34.0,VALID,0.0,
2019-09-29, 01:16:07,VALID,918.433,VALID,0.0,VALID,98.666,VALID,-0.014,VALID,20.709,VALID,34.0,VALID,0.0,
2019-09-29, 01:17:07,VALID,918.441,VALID,0.0,VALID,98.64,VALID,-0.019,VALID,20.686,VALID,28.0,VALID,0.0,
2019-09-29, 01:18:07,VALID,918.44,VALID,0.0,VALID,98.731,VALID,-0.011,VALID,20.704,VALID,24.0,VALID,0.0,
2019-09-29, 01:19:07,VALID,918.473,VALID,0.0,VALID,98.745,VALID,-0.003,VALID,20.673,VALID,9.0,VALID,0.0,
2019-09-29, 01:20:07,VALID,918.481,VALID,0.0,VALID,98.764,VALID,-0.005,VALID,20.647,VALID,4.0,VALID,0.0,
2019-09-29, 01:21:07,VALID,918.495,VALID,0.0,VALID,98.818,VALID,-0.025,VALID,20.647,VALID,16.0,VALID,0.0,
2019-09-29, 01:22:07,VALID,918.484,VALID,0.0,VALID,98.891,VALID,-0.022,VALID,20.665,VALID,40.0,VALID,0.0,
2019-09-29, 01:23:07,VALID,918.498,VALID,0.0,VALID,98.928,VALID,-0.004,VALID,20.655,VALID,39.0,VALID,0.0,
2019-09-29, 01:24:07,VALID,918.501,VALID,0.0,VALID,98.947,VALID,-0.018,VALID,20.657,VALID,36.0,VALID,0.0,
2019-09-29, 01:25:07,VALID,918.493,VALID,0.0,VALID,99.019,VALID,-0.023,VALID,20.687,VALID,26.0,VALID,0.0,
2019-09-29, 01:26:07,VALID,918.493,VALID,0.0,VALID,98.98,VALID,-0.029,VALID,20.653,VALID,25.0,VALID,0.0,
2019-09-29, 01:27:07,VALID,918.509,VALID,0.0,VALID,98.991,VALID,-0.02,VALID,20.677,VALID,1.0,VALID,0.0,
2019-09-29, 01:28:07,VALID,918.498,VALID,0.0,VALID,98.98,VALID,-0.039,VALID,20.671,VALID,351.0,VALID,0.0,
2019-09-29, 01:29:07,VALID,918.489,VALID,0.0,VALID,98.972,VALID,-0.02,VALID,20.642,VALID,18.0,VALID,0.0,
2019-09-29, 01:30:07,VALID,918.481,VALID,0.0,VALID,98.962,VALID,-0.028,VALID,20.634,VALID,20.0,VALID,0.0,
2019-09-29, 01:31:07,VALID,918.482,VALID,0.0,VALID,98.987,VALID,-0.034,VALID,20.641,VALID,17.0,VALID,0.0,
2019-09-29, 01:32:07,VALID,918.49,VALID,0.0,VALID,98.998,VALID,-0.018,VALID,20.629,VALID,3.0,VALID,0.0,
2019-09-29, 01:33:07,VALID,918.456,VALID,0.0,VALID,98.979,VALID,-0.0,VALID,20.618,VALID,360.0,VALID,0.0,
2019-09-29, 01:34:07,VALID,918.465,VALID,0.0,VALID,98.964,VALID,-0.025,VALID,20.599,VALID,340.0,VALID,0.0,
2019-09-29, 01:35:07,VALID,918.435,VALID,0.0,VALID,98.947,VALID,-0.026,VALID,20.574,VALID,11.0,VALID,0.0,
2019-09-29, 01:36:07,VALID,918.442,VALID,0.0,VALID,98.963,VALID,-0.038,VALID,20.559,VALID,1.0,VALID,0.0,
2019-09-29, 01:37:07,VALID,918.426,VALID,0.0,VALID,98.986,VALID,-0.043,VALID,20.57,VALID,12.0,VALID,0.0,
2019-09-29, 01:38:07,VALID,918.406,VALID,0.0,VALID,99.026,VALID,-0.037,VALID,20.582,VALID,347.0,VALID,0.0,
2019-09-29, 01:39:07,VALID,918.41,VALID,0.0,VALID,99.021,VALID,-0.032,VALID,20.565,VALID,356.0,VALID,0.0,
2019-09-29, 01:40:07,VALID,918.413,VALID,0.0,VALID,99.074,VALID,-0.035,VALID,20.583,VALID,8.0,VALID,0.0,
2019-09-29, 01:41:07,VALID,918.413,VALID,0.0,VALID,99.044,VALID,-0.031,VALID,20.569,VALID,13.0,VALID,0.0,
2019-09-29, 01:42:07,VALID,918.416,VALID,0.0,VALID,99.085,VALID,-0.03,VALID,20.598,VALID,13.0,VALID,0.0,
2019-09-29, 01:43:07,VALID,918.412,VALID,0.0,VALID,99.099,VALID,-0.028,VALID,20.599,VALID,18.0,VALID,0.0,
2019-09-29, 01:44:07,VALID,918.438,VALID,0.0,VALID,99.045,VALID,-0.035,VALID,20.556,VALID,39.0,VALID,0.0,
2019-09-29, 01:45:07,VALID,918.441,VALID,0.0,VALID,99.045,VALID,-0.04,VALID,20.553,VALID,59.0,VALID,0.0,
2019-09-29, 01:46:07,VALID,918.45,VALID,0.0,VALID,99.077,VALID,-0.024,VALID,20.571,VALID,59.0,VALID,0.0,
2019-09-29, 01:47:07,VALID,918.468,VALID,0.0,VALID,99.091,VALID,-0.03,VALID,20.585,VALID,59.0,VALID,0.0,
2019-09-29, 01:48:07,VALID,918.455,VALID,0.0,VALID,99.127,VALID,-0.035,VALID,20.604,VALID,59.0,VALID,0.0,
2019-09-29, 01:49:07,VALID,918.446,VALID,0.0,VALID,99.105,VALID,-0.013,VALID,20.591,VALID,58.0,VALID,0.0,
2019-09-29, 01:50:07,VALID,918.462,VALID,0.0,VALID,99.031,VALID,-0.028,VALID,20.545,VALID,42.0,VALID,0.0,
2019-09-29, 01:51:07,VALID,918.441,VALID,0.0,VALID,99.061,VALID,-0.015,VALID,20.534,VALID,34.0,VALID,0.0,
2019-09-29, 01:52:07,VALID,918.418,VALID,0.0,VALID,99.038,VALID,-0.013,VALID,20.513,VALID,33.0,VALID,0.0,
2019-09-29, 01:53:07,VALID,918.394,VALID,0.0,VALID,99.009,VALID,-0.01,VALID,20.477,VALID,9.0,VALID,0.0,
2019-09-29, 01:54:07,VALID,918.384,VALID,0.0,VALID,99.011,VALID,0.004,VALID,20.469,VALID,8.0,VALID,0.0,
2019-09-29, 01:55:07,VALID,918.384,VALID,0.0,VALID,99.044,VALID,-0.011,VALID,20.478,VALID,8.0,VALID,0.0,
2019-09-29, 01:56:07,VALID,918.367,VALID,0.0,VALID,99.09,VALID,-0.006,VALID,20.491,VALID,6.0,VALID,0.0,
2019-09-29, 01:57:07,VALID,918.367,VALID,0.0,VALID,99.098,VALID,-0.022,VALID,20.488,VALID,6.0,VALID,0.0,
2019-09-29, 01:58:07,VALID,918.358,VALID,0.0,VALID,99.136,VALID,-0.026,VALID,20.501,VALID,3.0,VALID,0.0,
2019-09-29, 01:59:07,VALID,918.35,VALID,0.0,VALID,99.115,VALID,-0.036,VALID,20.482,VALID,3.0,VALID,0.0,
2019-09-29, 02:00:07,VALID,918.367,VALID,0.0,VALID,99.123,VALID,-0.026,VALID,20.482,VALID,3.0,VALID,0.0,
2019-09-29, 02:01:07,VALID,918.355,VALID,0.0,VALID,99.154,VALID,-0.004,VALID,20.482,VALID,3.0,VALID,0.0,
2019-09-29, 02:02:07,VALID,918.355,VALID,0.0,VALID,99.174,VALID,-0.026,VALID,20.501,VALID,3.0,VALID,0.0,
2019-09-29, 02:03:07,VALID,918.365,VALID,0.0,VALID,99.196,VALID,-0.022,VALID,20.535,VALID,4.0,VALID,0.0,
2019-09-29, 02:04:07,VALID,918.357,VALID,0.0,VALID,99.207,VALID,-0.034,VALID,20.546,VALID,4.0,VALID,0.0,
2019-09-29, 02:05:07,VALID,918.358,VALID,0.0,VALID,99.18,VALID,-0.021,VALID,20.541,VALID,5.0,VALID,0.0,
2019-09-29, 02:06:07,VALID,918.341,VALID,0.0,VALID,99.151,VALID,-0.005,VALID,20.538,VALID,9.0,VALID,0.0,
2019-09-29, 02:07:07,VALID,918.323,VALID,0.0,VALID,99.161,VALID,-0.008,VALID,20.548,VALID,9.0,VALID,0.0,
2019-09-29, 02:08:07,VALID,918.336,VALID,0.0,VALID,99.146,VALID,0.012,VALID,20.526,VALID,357.0,VALID,0.0,
2019-09-29, 02:09:07,VALID,918.34,VALID,0.0,VALID,99.145,VALID,0.018,VALID,20.521,VALID,6.0,VALID,0.0,
2019-09-29, 02:10:07,VALID,918.323,VALID,0.0,VALID,99.177,VALID,-0.007,VALID,20.545,VALID,8.0,VALID,0.0,
2019-09-29, 02:11:07,VALID,918.323,VALID,0.0,VALID,99.232,VALID,0.003,VALID,20.576,VALID,8.0,VALID,0.0,
2019-09-29, 02:12:07,VALID,918.313,VALID,0.0,VALID,99.244,VALID,0.006,VALID,20.592,VALID,8.0,VALID,0.0,
2019-09-29, 02:13:07,VALID,918.306,VALID,0.0,VALID,99.213,VALID,0.002,VALID,20.588,VALID,8.0,VALID,0.0,
2019-09-29, 02:14:07,VALID,918.301,VALID,0.0,VALID,99.209,VALID,0.021,VALID,20.574,VALID,8.0,VALID,0.0,
2019-09-29, 02:15:07,VALID,918.295,VALID,0.0,VALID,99.225,VALID,-0.005,VALID,20.585,VALID,8.0,VALID,0.0,
2019-09-29, 02:16:07,VALID,918.29,VALID,0.0,VALID,99.181,VALID,-0.005,VALID,20.559,VALID,8.0,VALID,0.0,
2019-09-29, 02:17:07,VALID,918.294,VALID,0.0,VALID,99.157,VALID,-0.003,VALID,20.537,VALID,8.0,VALID,0.0,
2019-09-29, 02:18:07,VALID,918.304,VALID,0.0,VALID,99.194,VALID,0.011,VALID,20.551,VALID,8.0,VALID,0.0,
2019-09-29, 02:19:07,VALID,918.307,VALID,0.0,VALID,99.171,VALID,0.006,VALID,20.558,VALID,8.0,VALID,0.0,
2019-09-29, 02:20:07,VALID,918.274,VALID,0.0,VALID,99.139,VALID,-0.003,VALID,20.541,VALID,8.0,VALID,0.0,
2019-09-29, 02:21:07,VALID,918.26,VALID,0.0,VALID,99.118,VALID,-0.026,VALID,20.531,VALID,15.0,VALID,0.0,
2019-09-29, 02:22:07,VALID,918.249,VALID,0.0,VALID,99.086,VALID,-0.028,VALID,20.532,VALID,38.0,VALID,0.0,
2019-09-29, 02:23:07,VALID,918.239,VALID,0.0,VALID,99.124,VALID,-0.031,VALID,20.584,VALID,38.0,VALID,0.0,
2019-09-29, 02:24:07,VALID,918.217,VALID,0.0,VALID,99.092,VALID,-0.017,VALID,20.58,VALID,38.0,VALID,0.0,
2019-09-29, 02:25:07,VALID,918.186,VALID,0.0,VALID,99.079,VALID,-0.027,VALID,20.586,VALID,38.0,VALID,0.0,
2019-09-29, 02:26:07,VALID,918.173,VALID,0.0,VALID,99.018,VALID,-0.043,VALID,20.594,VALID,38.0,VALID,0.0,
2019-09-29, 02:27:07,VALID,918.151,VALID,0.0,VALID,98.889,VALID,-0.036,VALID,20.567,VALID,38.0,VALID,0.0,
2019-09-29, 02:28:07,VALID,918.138,VALID,0.0,VALID,98.704,VALID,-0.037,VALID,20.539,VALID,38.0,VALID,0.0,
2019-09-29, 02:29:07,VALID,918.132,VALID,0.0,VALID,98.64,VALID,-0.026,VALID,20.574,VALID,57.0,VALID,0.0,
2019-09-29, 02:30:07,VALID,918.131,VALID,0.0,VALID,98.574,VALID,-0.024,VALID,20.593,VALID,76.0,VALID,0.0,
2019-09-29, 02:31:07,VALID,918.135,VALID,0.0,VALID,98.506,VALID,-0.032,VALID,20.579,VALID,76.0,VALID,0.0,
2019-09-29, 02:32:07,VALID,918.122,VALID,0.0,VALID,98.511,VALID,-0.027,VALID,20.568,VALID,111.0,VALID,0.0,
2019-09-29, 02:33:07,VALID,918.096,VALID,0.0,VALID,98.471,VALID,-0.019,VALID,20.55,VALID,130.0,VALID,0.0,
2019-09-29, 02:34:07,VALID,918.103,VALID,0.0,VALID,98.473,VALID,-0.035,VALID,20.57,VALID,130.0,VALID,0.0,
2019-09-29, 02:35:07,VALID,918.101,VALID,0.0,VALID,98.513,VALID,-0.052,VALID,20.581,VALID,130.0,VALID,0.0,
2019-09-29, 02:36:07,VALID,918.101,VALID,0.0,VALID,98.476,VALID,-0.049,VALID,20.574,VALID,129.0,VALID,0.0,
2019-09-29, 02:37:07,VALID,918.112,VALID,0.0,VALID,98.43,VALID,-0.044,VALID,20.565,VALID,95.0,VALID,0.0,
2019-09-29, 02:38:07,VALID,918.111,VALID,0.0,VALID,98.39,VALID,-0.061,VALID,20.565,VALID,79.0,VALID,0.0,
2019-09-29, 02:39:07,VALID,918.132,VALID,0.0,VALID,98.275,VALID,-0.043,VALID,20.546,VALID,79.0,VALID,0.0,
2019-09-29, 02:40:07,VALID,918.14,VALID,0.0,VALID,98.197,VALID,-0.044,VALID,20.533,VALID,70.0,VALID,0.0,
2019-09-29, 02:41:07,VALID,918.146,VALID,0.0,VALID,98.235,VALID,-0.055,VALID,20.54,VALID,39.0,VALID,0.0,
2019-09-29, 02:42:07,VALID,918.154,VALID,0.0,VALID,98.272,VALID,-0.062,VALID,20.538,VALID,16.0,VALID,0.0,
2019-09-29, 02:43:07,VALID,918.162,VALID,0.0,VALID,98.244,VALID,-0.045,VALID,20.525,VALID,11.0,VALID,0.0,
2019-09-29, 02:44:07,VALID,918.175,VALID,0.0,VALID,98.276,VALID,-0.059,VALID,20.521,VALID,11.0,VALID,0.0,
2019-09-29, 02:45:07,VALID,918.19,VALID,0.0,VALID,98.275,VALID,-0.063,VALID,20.503,VALID,12.0,VALID,0.0,
2019-09-29, 02:46:07,VALID,918.201,VALID,0.0,VALID,98.344,VALID,-0.056,VALID,20.507,VALID,39.0,VALID,0.0,
2019-09-29, 02:47:07,VALID,918.197,VALID,0.0,VALID,98.316,VALID,-0.05,VALID,20.49,VALID,31.0,VALID,0.0,
2019-09-29, 02:48:07,VALID,918.198,VALID,0.0,VALID,98.41,VALID,-0.053,VALID,20.52,VALID,29.0,VALID,0.0,
2019-09-29, 02:49:07,VALID,918.195,VALID,0.0,VALID,98.438,VALID,-0.056,VALID,20.541,VALID,47.0,VALID,0.0,
2019-09-29, 02:50:07,VALID,918.177,VALID,0.0,VALID,98.42,VALID,-0.068,VALID,20.565,VALID,63.0,VALID,0.0,
2019-09-29, 02:51:07,VALID,918.173,VALID,0.0,VALID,98.36,VALID,-0.067,VALID,20.565,VALID,63.0,VALID,0.0,
2019-09-29, 02:52:07,VALID,918.146,VALID,0.0,VALID,98.278,VALID,-0.065,VALID,20.585,VALID,63.0,VALID,0.0,
2019-09-29, 02:53:06,VALID,918.126,VALID,0.0,VALID,98.183,VALID,-0.078,VALID,20.593,VALID,63.0,VALID,0.0,
2019-09-29, 02:54:06,VALID,918.122,VALID,0.0,VALID,98.078,VALID,-0.093,VALID,20.595,VALID,63.0,VALID,0.0,
2019-09-29, 02:55:06,VALID,918.129,VALID,0.0,VALID,97.996,VALID,-0.087,VALID,20.61,VALID,64.0,VALID,0.0,
2019-09-29, 02:56:06,VALID,918.137,VALID,0.0,VALID,97.943,VALID,-0.075,VALID,20.613,VALID,65.0,VALID,0.0,
2019-09-29, 02:57:06,VALID,918.136,VALID,0.0,VALID,97.936,VALID,-0.086,VALID,20.619,VALID,65.0,VALID,0.0,
2019-09-29, 02:58:06,VALID,918.144,VALID,0.0,VALID,98.002,VALID,-0.079,VALID,20.632,VALID,65.0,VALID,0.0,
2019-09-29, 02:59:06,VALID,918.136,VALID,0.0,VALID,98.011,VALID,-0.068,VALID,20.645,VALID,65.0,VALID,0.0,
2019-09-29, 03:00:06,VALID,918.143,VALID,0.0,VALID,98.072,VALID,-0.085,VALID,20.661,VALID,72.0,VALID,0.0,
2019-09-29, 03:01:06,VALID,918.163,VALID,0.0,VALID,98.024,VALID,-0.08,VALID,20.672,VALID,116.0,VALID,0.0,
2019-09-29, 03:02:06,VALID,918.146,VALID,0.0,VALID,97.974,VALID,-0.073,VALID,20.638,VALID,124.0,VALID,0.0,
2019-09-29, 03:03:06,VALID,918.147,VALID,0.0,VALID,98.093,VALID,-0.069,VALID,20.606,VALID,118.0,VALID,0.0,
2019-09-29, 03:04:06,VALID,918.172,VALID,0.0,VALID,98.254,VALID,-0.076,VALID,20.59,VALID,101.0,VALID,0.0,
2019-09-29, 03:05:06,VALID,918.175,VALID,0.0,VALID,98.362,VALID,-0.039,VALID,20.58,VALID,101.0,VALID,0.0,
2019-09-29, 03:06:06,VALID,918.167,VALID,0.0,VALID,98.455,VALID,0.0,VALID,20.578,VALID,101.0,VALID,0.0,
2019-09-29, 03:07:06,VALID,918.173,VALID,0.0,VALID,98.504,VALID,-0.001,VALID,20.573,VALID,101.0,VALID,0.0,
2019-09-29, 03:08:06,VALID,918.194,VALID,0.0,VALID,98.532,VALID,-0.021,VALID,20.559,VALID,101.0,VALID,0.0,
2019-09-29, 03:09:06,VALID,918.217,VALID,0.0,VALID,98.542,VALID,-0.016,VALID,20.547,VALID,101.0,VALID,0.0,
2019-09-29, 03:10:06,VALID,918.228,VALID,0.0,VALID,98.565,VALID,-0.016,VALID,20.544,VALID,97.0,VALID,0.0,
2019-09-29, 03:11:06,VALID,918.24,VALID,0.0,VALID,98.535,VALID,-0.022,VALID,20.528,VALID,77.0,VALID,0.0,
2019-09-29, 03:12:06,VALID,918.254,VALID,0.0,VALID,98.575,VALID,-0.008,VALID,20.52,VALID,74.0,VALID,0.0,
2019-09-29, 03:13:06,VALID,918.267,VALID,0.0,VALID,98.511,VALID,0.002,VALID,20.48,VALID,74.0,VALID,0.0,
2019-09-29, 03:14:06,VALID,918.284,VALID,0.0,VALID,98.519,VALID,-0.023,VALID,20.463,VALID,74.0,VALID,0.0,
2019-09-29, 03:15:06,VALID,918.281,VALID,0.0,VALID,98.581,VALID,-0.026,VALID,20.45,VALID,74.0,VALID,0.0,
2019-09-29, 03:16:06,VALID,918.297,VALID,0.0,VALID,98.632,VALID,-0.018,VALID,20.465,VALID,59.0,VALID,0.0,
2019-09-29, 03:17:06,VALID,918.283,VALID,0.0,VALID,98.725,VALID,-0.008,VALID,20.493,VALID,26.0,VALID,0.0,
2019-09-29, 03:18:06,VALID,918.293,VALID,0.0,VALID,98.741,VALID,-0.01,VALID,20.511,VALID,26.0,VALID,0.0,
2019-09-29, 03:19:06,VALID,918.257,VALID,0.0,VALID,98.756,VALID,-0.033,VALID,20.527,VALID,26.0,VALID,0.0,
2019-09-29, 03:20:06,VALID,918.25,VALID,0.0,VALID,98.738,VALID,-0.025,VALID,20.546,VALID,26.0,VALID,0.0,
2019-09-29, 03:21:06,VALID,918.235,VALID,0.0,VALID,98.708,VALID,-0.003,VALID,20.556,VALID,26.0,VALID,0.0,
2019-09-29, 03:22:06,VALID,918.219,VALID,0.0,VALID,98.684,VALID,-0.004,VALID,20.572,VALID,26.0,VALID,0.0,
2019-09-29, 03:23:06,VALID,918.233,VALID,0.0,VALID,98.653,VALID,-0.008,VALID,20.601,VALID,26.0,VALID,0.0,
2019-09-29, 03:24:06,VALID,918.23,VALID,0.0,VALID,98.625,VALID,-0.017,VALID,20.605,VALID,26.0,VALID,0.0,
2019-09-29, 03:25:06,VALID,918.218,VALID,0.0,VALID,98.561,VALID,-0.018,VALID,20.591,VALID,26.0,VALID,0.0,
2019-09-29, 03:26:06,VALID,918.219,VALID,0.0,VALID,98.51,VALID,-0.025,VALID,20.592,VALID,26.0,VALID,0.0,
2019-09-29, 03:27:06,VALID,918.207,VALID,0.0,VALID,98.487,VALID,-0.015,VALID,20.592,VALID,26.0,VALID,0.0,
2019-09-29, 03:28:06,VALID,918.186,VALID,0.0,VALID,98.406,VALID,-0.018,VALID,20.56,VALID,39.0,VALID,0.0,
2019-09-29, 03:29:06,VALID,918.186,VALID,0.0,VALID,98.393,VALID,-0.028,VALID,20.557,VALID,56.0,VALID,0.0,
2019-09-29, 03:30:06,VALID,918.163,VALID,0.0,VALID,98.407,VALID,-0.014,VALID,20.558,VALID,56.0,VALID,0.0,
2019-09-29, 03:31:06,VALID,918.158,VALID,0.0,VALID,98.419,VALID,-0.022,VALID,20.553,VALID,56.0,VALID,0.0,
2019-09-29, 03:32:06,VALID,918.159,VALID,0.0,VALID,98.386,VALID,-0.002,VALID,20.529,VALID,60.0,VALID,0.0,
2019-09-29, 03:33:06,VALID,918.184,VALID,0.0,VALID,98.422,VALID,-0.014,VALID,20.534,VALID,69.0,VALID,0.0,
2019-09-29, 03:34:06,VALID,918.187,VALID,0.0,VALID,98.433,VALID,-0.02,VALID,20.528,VALID,76.0,VALID,0.0,
2019-09-29, 03:35:06,VALID,918.206,VALID,0.0,VALID,98.508,VALID,-0.012,VALID,20.534,VALID,76.0,VALID,0.0,
2019-09-29, 03:36:06,VALID,918.208,VALID,0.0,VALID,98.504,VALID,-0.022,VALID,20.521,VALID,76.0,VALID,0.0,
2019-09-29, 03:37:06,VALID,918.191,VALID,0.0,VALID,98.49,VALID,-0.004,VALID,20.503,VALID,76.0,VALID,0.0,
2019-09-29, 03:38:06,VALID,918.174,VALID,0.0,VALID,98.486,VALID,-0.006,VALID,20.488,VALID,76.0,VALID,0.0,
2019-09-29, 03:39:06,VALID,918.132,VALID,0.0,VALID,98.519,VALID,-0.006,VALID,20.478,VALID,76.0,VALID,0.0,
2019-09-29, 03:40:06,VALID,918.109,VALID,0.0,VALID,98.601,VALID,-0.027,VALID,20.493,VALID,76.0,VALID,0.0,
2019-09-29, 03:41:06,VALID,918.094,VALID,0.0,VALID,98.6,VALID,-0.01,VALID,20.515,VALID,90.0,VALID,0.0,
2019-09-29, 03:42:06,VALID,918.066,VALID,0.0,VALID,98.585,VALID,-0.016,VALID,20.513,VALID,167.0,VALID,0.0,
2019-09-29, 03:43:06,VALID,918.083,VALID,0.0,VALID,98.609,VALID,-0.004,VALID,20.523,VALID,157.0,VALID,0.0,